Douglas Bisbee, AZ

10:28 PM MST on April 29, 2017 (GMT -0700)
Bisbee Douglas International

Weather History for KDUG - December, 2012

Change the Weather History Date:

Wednesday, December 26, 2012

  Actual Average Record
Temperature  
Mean Temperature 47 °F 45 °F  
Max Temperature 65 °F 62 °F 76 °F (1980)
Min Temperature 29 °F 29 °F 12 °F (2001)
Degree Days  
Heating Degree Days 18 20  
Month to date heating degree days 458 492  
Since 1 July heating degree days 754 927  
Cooling Degree Days 0 0  
Month to date cooling degree days 0 0  
Year to date cooling degree days 2056 1813  
Moisture  
Dew Point 16 °F    
Average Humidity 41    
Maximum Humidity 75    
Minimum Humidity 6    
Precipitation  
Precipitation 0.00 in 0.03 in 1.05 in (1994)
Month to date precipitation 0.31 0.82  
Year to date precipitation 7.51 12.95  
Snow  
Snow 0.00 in - - ()
Month to date snowfall 0.0  
Snow Depth 0.00 in    
Sea Level Pressure  
Sea Level Pressure 29.86 in    
Wind  
Wind Speed 9 mph (SSW)    
Max Wind Speed 20 mph    
Max Gust Speed 25 mph    
Visibility 10 miles    
Events      
T = Trace of Precipitation, MM = Missing Value Source: NWS Daily Summary

Daily Weather History Graph

Daily Weather History Graph

Search for Another Location

Airport or City:

Trip Planner

Search our weather history database for the weather conditions in past years. The results will help you decide how hot, cold, wet, or windy it might be!

Date:

Astronomy

Dec. 26, 2012 Rise Set
Actual Time 7:16 AM MST 5:22 PM MST
Civil Twilight 6:49 AM MST 5:49 PM MST
Nautical Twilight 6:18 AM MST 6:19 PM MST
Astronomical Twilight 5:49 AM MST 6:49 PM MST
Moon 4:17 PM MST (12/26) 5:43 AM MST (12/26)
Length of Visible Light 11h 00m
Length of Day
10h 06m
Waxing Gibbous, 98% of the Moon is Illuminated
Dec 26
Waxing Gibbous
Dec 28
Full
Jan 4
Last Quarter
Jan 11
New
Jan 18
First Quarter

Hourly Weather History & Observations

Time (MST) Temp. Windchill Dew Point Humidity Pressure Visibility Wind Dir Wind Speed Gust Speed Precip Events Conditions
12:56 AM 39.9 °F 37.8 °F 26.1 °F 58% 29.95 in 10.0 mi East 3.5 mph - N/A   Clear
2:56 AM 36.0 °F - 24.1 °F 62% 29.93 in 10.0 mi Calm Calm - N/A   Clear
3:56 AM 35.1 °F 31.0 °F 25.0 °F 67% 29.91 in 10.0 mi SE 4.6 mph - N/A   Clear
5:56 AM 30.0 °F 26.5 °F 21.9 °F 72% 29.93 in 10.0 mi NNE 3.5 mph - N/A   Clear
6:56 AM 33.1 °F 28.7 °F 24.1 °F 70% 29.93 in 10.0 mi ENE 4.6 mph - N/A   Clear
7:56 AM 28.9 °F - 21.9 °F 75% 29.95 in 10.0 mi Calm Calm - N/A   Clear
8:56 AM 37.9 °F - 26.1 °F 62% 29.93 in 10.0 mi Calm Calm - N/A   Clear
9:56 AM 45.0 °F - 27.0 °F 49% 29.93 in 10.0 mi Calm Calm - N/A   Clear
10:56 AM 48.0 °F - 27.0 °F 44% 29.92 in 10.0 mi Calm Calm - N/A   Clear
11:56 AM 55.0 °F - 25.0 °F 31% 29.86 in 10.0 mi South 8.1 mph - N/A   Clear
12:56 PM 59.0 °F - 23.0 °F 25% 29.81 in 10.0 mi SSE 8.1 mph - N/A   Clear
1:56 PM 62.1 °F - 21.0 °F 21% 29.78 in 10.0 mi South 10.4 mph - N/A   Clear
2:56 PM 64.9 °F - -4.0 °F 6% 29.76 in 10.0 mi WSW 19.6 mph 23.0 mph N/A   Clear
3:56 PM 62.1 °F - 1.9 °F 9% 29.77 in 10.0 mi West 11.5 mph - N/A   Clear
4:56 PM 59.0 °F - 5.0 °F 12% 29.77 in 10.0 mi SW 17.3 mph - N/A   Clear
5:56 PM 55.9 °F - 3.9 °F 12% 29.81 in 10.0 mi SW 12.7 mph - N/A   Clear
6:56 PM 54.0 °F - 7.0 °F 15% 29.81 in 10.0 mi SW 18.4 mph - N/A   Clear
7:56 PM 51.1 °F - 6.1 °F 16% 29.84 in 10.0 mi WSW 17.3 mph - N/A   Clear
8:56 PM 50.0 °F - 3.9 °F 15% 29.82 in 10.0 mi SW 17.3 mph - N/A   Clear
9:56 PM 48.9 °F - 6.1 °F 18% 29.82 in 10.0 mi WSW 15.0 mph - N/A   Clear
10:56 PM 48.9 °F - 8.1 °F 19% 29.81 in 10.0 mi SW 15.0 mph - N/A   Clear
11:56 PM 43.0 °F 36.0 °F 10.9 °F 27% 29.82 in 10.0 mi NW 13.8 mph - N/A   Clear